This is the latest recevied weather packets stored in our database for station/object KQ4NAL. If no packets are shown the sender has not sent any weather packets the latest 10 day(s).
| Time | Temp. | Humidity | Pressure | Rain* | Wind** | Luminosity | Snow |
|---|---|---|---|---|---|---|---|
| 1778036464 | 15° C | 99% | 1008.2 hPa | 0 mm | - | 0 W/m² | - |
| 1778036160 | 15° C | 99% | 1007.9 hPa | 0 mm | - | 0 W/m² | - |
| 1778035856 | 15° C | 99% | 1008 hPa | 3.05 mm | - | 0 W/m² | - |
| 1778035554 | 15° C | 99% | 1008.1 hPa | 7.11 mm | - | 0 W/m² | - |
| 1778035250 | 15° C | 99% | 1008.5 hPa | 7.11 mm | - | 0 W/m² | - |
| 1778034946 | 15° C | 99% | 1008.7 hPa | 7.87 mm | - | 0 W/m² | - |
| 1778034644 | 15° C | 99% | 1008.6 hPa | 4.32 mm | - | 0 W/m² | - |
| 1778034341 | 15° C | 99% | 1008.7 hPa | 1.27 mm | - | 0 W/m² | - |
| 1778034039 | 15° C | 99% | 1008.5 hPa | 1.78 mm | - | 0 W/m² | - |
| 1778033736 | 15° C | 99% | 1008.6 hPa | 3.56 mm | - | 0 W/m² | - |
| 1778033433 | 15° C | 99% | 1008.7 hPa | 1.78 mm | - | 0 W/m² | - |
| 1778033131 | 15° C | 99% | 1008.7 hPa | 1.78 mm | - | 0 W/m² | - |
| 1778032828 | 15° C | 99% | 1008.7 hPa | 0 mm | - | 0 W/m² | - |
| 1778032525 | 15° C | 99% | 1008.6 hPa | 0 mm | - | 0 W/m² | - |
| 1778032222 | 15° C | 99% | 1008.5 hPa | 0 mm | - | 0 W/m² | - |
| 1778031919 | 15° C | 99% | 1008.2 hPa | 0 mm | - | 0 W/m² | - |
| 1778031615 | 15° C | 99% | 1008.7 hPa | 0 mm | - | 0 W/m² | - |
| 1778031313 | 15° C | 99% | 1008.6 hPa | 1.27 mm | - | 0 W/m² | - |
| 1778031010 | 15° C | 99% | 1008.7 hPa | 1.27 mm | - | 0 W/m² | - |
| 1778030706 | 15° C | 99% | 1009.1 hPa | 1.78 mm | - | 0 W/m² | - |
| 1778030403 | 15° C | 99% | 1008.6 hPa | 1.78 mm | - | 0 W/m² | - |
| 1778030100 | 15° C | 99% | 1008.5 hPa | 0 mm | - | 0 W/m² | - |
| 1778029796 | 15° C | 99% | 1007.9 hPa | 0 mm | - | 0 W/m² | - |
| 1778029496 | 15° C | 99% | 1007.8 hPa | 0 mm | - | 0 W/m² | - |
| 1778029191 | 15° C | 99% | 1007.7 hPa | 0 mm | - | 0 W/m² | - |
* Rain latest hour (hover to see other rain measurements)
** Current wind speed in m/s (hover to see current wind gust speed)